Tracking 22836 objects as of 18-Apr-2021
HD Live streaming from Space Station
objects crossing your sky now

DELTA 1 DEB

Track DELTA 1 DEB now!
10-day predictions


NORAD ID: 7170
Int'l Code: 1973-086EJ
Perigee: 1,197.0 km
Apogee: 1,327.2 km
Inclination: 101.7 °
Period: 110.6 minutes
Semi major axis: 7633 km
RCS: 0.0871 m2 (small)
Launch date: November 6, 1973
Source: United States (US)
Launch site: AIR FORCE WESTERN TEST RANGE (AFWTR)

Note: This is SATELLITE DEBRIS
aabbcc
Your satellite tracking list
Your tracking list is empty




NASA's NSSDC Master Catalog

Two Line Element Set (TLE):
1 07170U 73086EJ  21107.87382631  .00000937  00000-0  31443-2 0  9994
2 07170 101.6936 340.0309 0085262 184.8751 186.2053 13.01826265218166
Source of the keplerian elements: AFSPC